COSMOS 2251 DEB, 36048

Orbit data source: Space-Track

COSMOS 2251 DEB, 36048 is space debris in LEO originally from a launch on Wed, 16 Jun 1993 UTC launched from the Plesetsk Missile And Space Complex (PKMTR). The debris from Iridium 33, an American commercial communications satellite, has been tracked extensively since its accidental collision with the defunct Russian satellite Cosmos 2251 in 2009. This event, occurring at high speed in low Earth orbit (LEO), generated thousands of pieces of space debris, significantly increasing the risk of further collisions. The Iridium 33 debris cloud has impacted space traffic management and orbital debris mitigation strategies, making it a subject of ongoing study in space situational awareness.

Loading next visibility...
Identifier
36048, 1993-036AXK
Orbit
LEO
Country
Flag of CISCIS
Related business
Manufacturer
Unknown
Mission
Spacecraft
Bus & Motor
Unknown
Mass
Unknown
Launch date (UTC)
1993-06-16 (33 years ago)
Launch vehicle
Unknown
Launch site
Plesetsk Missile And Space Complex (PKMTR)
Object type
Payload
Rocket body
Debris
Shape & HBR
Unknown shape, 0.1 m
Radar Cross Section
Medium (>0.1 m² and <1 m²)

Expand to show TLE details & history
Last TLE update: 1 day ago

TLE from 1 day ago
0 COSMOS 2251 DEB
1 36048U 93036AXK 26206.88762816  .00000454  00000-0  15763-3 0  9992
2 36048  74.0547 245.1133 0027530 244.6192 291.0469 14.38165138887389
Epoch: 2026-07-25T21:18Z
TLE epoch observation values (Epoch: 2026-07-25T21:18:11.073Z)
Latitude
4.36627°
Longitude
160.73036°
Altitude
759.705 km
Speed
7.479 km/s
True Right ascension
04h 15m 28s
True Declination
4° 20' 25"
Sunlit
Object was in daylight at epoch
Visualization orbit readout
Latitude
Unknown
Longitude
Unknown
Altitude
Unknown
Speed
Unknown
Apparent Right ascension
Unknown
Apparent Declination
Unknown
Sunlit
N/A
Visualization observer readout
Local Sidereal Time
12:51:19
Azimuth
Unknown
Elevation
Unknown
Doppler factor
Unknown
Orbital elements
Apogee altitude
781.845 km
Perigee altitude
742.53 km
Semi-major axis
7,140.324 km
Eccentricity
0.00275
Inclination
74.0547°
RAAN
245.1133°
Arg. of periapsis
244.6192°
True anomaly
290.75211°
Mean anomaly
291.0469°
Eccentric anomaly
290.89954°
Mean motion
3.59721 °/min
Orbital period
100.08 mins
BSTAR
0.00015763

Documentation

Showing up to 5 results
|